Time,TemperatureF,DewpointF,PressureIn,WindDirection,WindDirectionDegrees,WindSpeedMPH,WindSpeedGustMPH,Humidity,HourlyPrecipIn,Conditions,Clouds,dailyrainin,SoftwareType,DateUTC
2013-09-30 00:01:00,59.8,47.2,29.95,SSE,152,1.0,1.0,63,0.00,,---,0.00,VWS V14.01,2013-09-30 05:01:00,
2013-09-30 00:06:00,59.6,47.0,29.95,SE,142,0.0,2.0,63,0.00,,---,0.00,VWS V14.01,2013-09-30 05:06:00,
2013-09-30 00:11:00,59.4,47.2,29.95,SE,143,0.0,2.0,64,0.00,,---,0.00,VWS V14.01,2013-09-30 05:11:00,
2013-09-30 00:16:00,59.3,47.1,29.95,SE,135,0.0,0.0,64,0.00,,---,0.00,VWS V14.01,2013-09-30 05:16:00,
2013-09-30 00:21:00,59.2,47.5,29.95,SSE,162,1.0,6.0,65,0.00,,---,0.00,VWS V14.01,2013-09-30 05:21:00,
2013-09-30 00:26:00,59.0,47.7,29.95,SSE,158,0.0,6.0,66,0.00,,---,0.00,VWS V14.01,2013-09-30 05:26:00,
2013-09-30 00:31:00,58.7,47.4,29.95,South,186,0.0,0.0,66,0.00,,---,0.00,VWS V14.01,2013-09-30 05:31:00,
2013-09-30 00:36:00,58.3,47.8,29.95,SE,131,2.0,2.0,68,0.00,,---,0.00,VWS V14.01,2013-09-30 05:36:00,
2013-09-30 00:41:00,58.1,47.6,29.94,SE,125,1.0,2.0,68,0.00,,---,0.00,VWS V14.01,2013-09-30 05:41:00,
2013-09-30 00:46:00,57.9,47.8,29.94,SSE,152,0.0,1.0,69,0.00,,---,0.00,VWS V14.01,2013-09-30 05:46:00,
2013-09-30 00:51:00,57.7,47.6,29.94,SSE,156,0.0,2.0,69,0.00,,---,0.00,VWS V14.01,2013-09-30 05:51:00,
2013-09-30 00:56:00,57.6,47.5,29.94,SSE,156,1.0,2.0,69,0.00,,---,0.00,VWS V14.01,2013-09-30 05:56:00,
2013-09-30 01:01:00,57.5,47.8,29.94,SE,136,2.0,2.0,70,0.00,,---,0.00,VWS V14.01,2013-09-30 06:01:00,
2013-09-30 01:06:00,57.4,47.7,29.93,ESE,113,0.0,5.0,70,0.00,,---,0.00,VWS V14.01,2013-09-30 06:06:00,
2013-09-30 01:11:00,57.1,47.8,29.93,SSW,203,0.0,5.0,71,0.00,,---,0.00,VWS V14.01,2013-09-30 06:11:00,
2013-09-30 01:16:00,56.9,47.6,29.93,SSE,151,1.0,2.0,71,0.00,,---,0.00,VWS V14.01,2013-09-30 06:16:00,
2013-09-30 01:21:00,56.8,47.9,29.93,SSE,158,1.0,2.0,72,0.00,,---,0.00,VWS V14.01,2013-09-30 06:21:00,
2013-09-30 01:26:00,56.7,47.8,29.93,SSE,160,0.0,2.0,72,0.00,,---,0.00,VWS V14.01,2013-09-30 06:26:00,
2013-09-30 01:31:00,56.6,47.7,29.93,SSW,195,4.0,4.0,72,0.00,,---,0.00,VWS V14.01,2013-09-30 06:31:00,
2013-09-30 01:36:00,56.7,47.8,29.92,SE,134,1.0,5.0,72,0.00,,---,0.00,VWS V14.01,2013-09-30 06:36:00,
2013-09-30 01:41:00,56.6,47.7,29.92,South,174,2.0,5.0,72,0.00,,---,0.00,VWS V14.01,2013-09-30 06:41:00,
2013-09-30 01:46:00,56.5,48.0,29.92,SSW,203,0.0,0.0,73,0.00,,---,0.00,VWS V14.01,2013-09-30 06:46:00,
2013-09-30 01:51:00,56.4,47.9,29.93,SW,222,0.0,1.0,73,0.00,,---,0.00,VWS V14.01,2013-09-30 06:51:00,
2013-09-30 01:56:00,56.1,47.9,29.93,South,188,0.0,2.0,74,0.00,,---,0.00,VWS V14.01,2013-09-30 06:56:00,
2013-09-30 02:01:00,55.8,47.7,29.94,SW,215,0.0,1.0,74,0.00,,---,0.00,VWS V14.01,2013-09-30 07:01:00,
2013-09-30 02:06:00,55.5,47.7,29.94,SW,218,0.0,1.0,75,0.00,,---,0.00,VWS V14.01,2013-09-30 07:06:00,
2013-09-30 02:11:00,55.3,47.9,29.94,SW,218,0.0,1.0,76,0.00,,---,0.00,VWS V14.01,2013-09-30 07:11:00,
2013-09-30 02:16:00,55.0,47.6,29.93,SW,228,0.0,1.0,76,0.00,,---,0.00,VWS V14.01,2013-09-30 07:16:00,
2013-09-30 02:21:00,54.7,47.6,29.93,SW,224,0.0,1.0,77,0.00,,---,0.00,VWS V14.01,2013-09-30 07:21:00,
2013-09-30 02:26:00,54.6,47.9,29.93,South,169,0.0,1.0,78,0.00,,---,0.00,VWS V14.01,2013-09-30 07:26:00,
2013-09-30 02:31:00,54.4,48.0,29.93,SSE,152,0.0,0.0,79,0.00,,---,0.00,VWS V14.01,2013-09-30 07:31:00,
2013-09-30 02:36:00,54.4,48.0,29.92,SE,137,0.0,2.0,79,0.00,,---,0.00,VWS V14.01,2013-09-30 07:36:00,
2013-09-30 02:41:00,54.4,48.0,29.93,SSE,166,0.0,4.0,79,0.00,,---,0.00,VWS V14.01,2013-09-30 07:41:00,
2013-09-30 02:46:00,54.3,47.9,29.93,SE,143,0.0,1.0,79,0.00,,---,0.00,VWS V14.01,2013-09-30 07:46:00,
2013-09-30 02:51:00,54.1,47.7,29.92,SSE,154,0.0,1.0,79,0.00,,---,0.00,VWS V14.01,2013-09-30 07:51:00,
2013-09-30 02:56:00,54.0,48.0,29.92,SSE,167,0.0,1.0,80,0.00,,---,0.00,VWS V14.01,2013-09-30 07:56:00,
2013-09-30 03:01:00,54.0,48.0,29.92,SE,142,0.0,1.0,80,0.00,,---,0.00,VWS V14.01,2013-09-30 08:01:00,
2013-09-30 03:06:00,54.0,48.0,29.92,SSE,159,0.0,1.0,80,0.00,,---,0.00,VWS V14.01,2013-09-30 08:06:00,
2013-09-30 03:11:00,54.1,48.4,29.92,SW,221,0.0,1.0,81,0.00,,---,0.00,VWS V14.01,2013-09-30 08:11:00,
2013-09-30 03:16:00,53.9,47.9,29.92,SW,221,0.0,0.0,80,0.00,,---,0.00,VWS V14.01,2013-09-30 08:16:00,
2013-09-30 03:21:00,53.6,47.9,29.92,SW,221,0.0,1.0,81,0.00,,---,0.00,VWS V14.01,2013-09-30 08:21:00,
2013-09-30 03:26:00,53.6,48.2,29.91,SW,222,0.0,1.0,82,0.00,,---,0.00,VWS V14.01,2013-09-30 08:26:00,
2013-09-30 03:31:00,53.5,48.2,29.92,SW,215,0.0,0.0,82,0.00,,---,0.00,VWS V14.01,2013-09-30 08:31:00,
2013-09-30 03:36:00,53.4,48.0,29.92,SW,222,0.0,0.0,82,0.00,,---,0.00,VWS V14.01,2013-09-30 08:36:00,
2013-09-30 03:41:00,53.4,48.4,29.91,SSE,160,0.0,1.0,83,0.00,,---,0.00,VWS V14.01,2013-09-30 08:41:00,
2013-09-30 03:46:00,53.4,48.4,29.91,SE,141,0.0,1.0,83,0.00,,---,0.00,VWS V14.01,2013-09-30 08:46:00,
2013-09-30 03:51:00,53.4,48.4,29.92,South,172,0.0,1.0,83,0.00,,---,0.00,VWS V14.01,2013-09-30 08:51:00,
2013-09-30 03:56:00,53.5,48.5,29.91,SSW,205,0.0,1.0,83,0.00,,---,0.00,VWS V14.01,2013-09-30 08:56:00,
2013-09-30 04:01:00,53.5,48.8,29.91,South,169,0.0,0.0,84,0.00,,---,0.00,VWS V14.01,2013-09-30 09:01:00,
2013-09-30 04:06:00,53.4,48.4,29.92,South,169,0.0,0.0,83,0.00,,---,0.00,VWS V14.01,2013-09-30 09:06:00,
2013-09-30 04:11:00,53.3,48.6,29.92,SSW,197,0.0,0.0,84,0.00,,---,0.00,VWS V14.01,2013-09-30 09:11:00,
2013-09-30 04:16:00,53.2,48.5,29.92,SSW,207,0.0,1.0,84,0.00,,---,0.00,VWS V14.01,2013-09-30 09:16:00,
2013-09-30 04:21:00,53.0,48.6,29.92,SSW,207,0.0,1.0,85,0.00,,---,0.00,VWS V14.01,2013-09-30 09:21:00,
2013-09-30 04:26:00,52.8,48.4,29.91,SSW,207,0.0,1.0,85,0.00,,---,0.00,VWS V14.01,2013-09-30 09:26:00,
2013-09-30 04:31:00,52.7,48.6,29.91,SE,136,0.0,0.0,86,0.00,,---,0.00,VWS V14.01,2013-09-30 09:31:00,
2013-09-30 04:36:00,52.7,48.6,29.91,SSE,158,0.0,1.0,86,0.00,,---,0.00,VWS V14.01,2013-09-30 09:36:00,
2013-09-30 04:41:00,52.7,49.0,29.91,SSE,158,0.0,1.0,87,0.00,,---,0.00,VWS V14.01,2013-09-30 09:41:00,
2013-09-30 04:46:00,52.6,48.8,29.91,SSE,153,0.0,0.0,87,0.00,,---,0.00,VWS V14.01,2013-09-30 09:46:00,
2013-09-30 04:51:00,52.6,48.8,29.91,SSE,159,0.0,1.0,87,0.00,,---,0.00,VWS V14.01,2013-09-30 09:51:00,
2013-09-30 04:56:00,52.6,49.2,29.91,SW,224,0.0,1.0,88,0.00,,---,0.00,VWS V14.01,2013-09-30 09:56:00,
2013-09-30 05:01:00,52.6,48.8,29.91,SW,236,0.0,0.0,87,0.00,,---,0.00,VWS V14.01,2013-09-30 10:01:00,
2013-09-30 05:06:00,52.4,49.0,29.91,SSE,149,0.0,1.0,88,0.00,,---,0.00,VWS V14.01,2013-09-30 10:06:00,
2013-09-30 05:11:00,52.5,49.0,29.91,South,184,0.0,1.0,88,0.00,,---,0.00,VWS V14.01,2013-09-30 10:11:00,
2013-09-30 05:16:00,52.5,49.0,29.91,SSW,200,0.0,0.0,88,0.00,,---,0.00,VWS V14.01,2013-09-30 10:16:00,
2013-09-30 05:21:00,52.4,49.0,29.91,SSE,155,0.0,1.0,88,0.00,,---,0.00,VWS V14.01,2013-09-30 10:21:00,
2013-09-30 05:26:00,52.3,48.9,29.91,South,186,0.0,1.0,88,0.00,,---,0.00,VWS V14.01,2013-09-30 10:26:00,
2013-09-30 05:31:00,52.2,49.1,29.91,SSW,205,0.0,1.0,89,0.00,,---,0.00,VWS V14.01,2013-09-30 10:31:00,
2013-09-30 05:36:00,52.2,49.1,29.91,SSE,152,0.0,1.0,89,0.00,,---,0.00,VWS V14.01,2013-09-30 10:36:00,
2013-09-30 05:41:00,52.2,49.1,29.91,SE,124,0.0,1.0,89,0.00,,---,0.00,VWS V14.01,2013-09-30 10:41:00,
2013-09-30 05:46:00,52.2,49.1,29.91,SSE,167,0.0,1.0,89,0.00,,---,0.00,VWS V14.01,2013-09-30 10:46:00,
2013-09-30 05:51:00,52.1,48.7,29.91,SSE,159,0.0,1.0,88,0.00,,---,0.00,VWS V14.01,2013-09-30 10:51:00,
2013-09-30 05:56:00,52.1,48.7,29.92,SSE,159,0.0,1.0,88,0.00,,---,0.00,VWS V14.01,2013-09-30 10:56:00,
2013-09-30 06:01:00,52.1,48.7,29.91,SSE,159,0.0,0.0,88,0.00,,---,0.00,VWS V14.01,2013-09-30 11:01:00,
2013-09-30 06:06:00,52.1,48.7,29.91,SSE,159,0.0,0.0,88,0.00,,---,0.00,VWS V14.01,2013-09-30 11:06:00,
2013-09-30 06:11:00,52.1,48.7,29.90,SSE,159,0.0,0.0,88,0.00,,---,0.00,VWS V14.01,2013-09-30 11:11:00,
2013-09-30 06:16:00,52.1,48.7,29.90,SSE,159,0.0,0.0,88,0.00,,---,0.00,VWS V14.01,2013-09-30 11:16:00,
2013-09-30 06:21:00,52.1,48.7,29.91,SSE,159,0.0,0.0,88,0.00,,---,0.00,VWS V14.01,2013-09-30 11:21:00,
2013-09-30 06:26:00,52.1,48.7,29.91,SSE,159,0.0,0.0,88,0.00,,---,0.00,VWS V14.01,2013-09-30 11:26:00,
2013-09-30 06:31:00,52.1,48.7,29.90,SSE,159,0.0,0.0,88,0.00,,---,0.00,VWS V14.01,2013-09-30 11:31:00,
2013-09-30 06:36:00,52.1,48.7,29.90,SSE,159,0.0,0.0,88,0.00,,---,0.00,VWS V14.01,2013-09-30 11:36:00,
2013-09-30 06:41:00,52.1,48.7,29.90,SSE,159,0.0,0.0,88,0.00,,---,0.00,VWS V14.01,2013-09-30 11:41:00,
2013-09-30 06:46:00,52.1,48.7,29.90,SSE,159,0.0,0.0,88,0.00,,---,0.00,VWS V14.01,2013-09-30 11:46:00,
2013-09-30 06:51:00,52.1,48.7,29.90,SSE,159,0.0,0.0,88,0.00,,---,0.00,VWS V14.01,2013-09-30 11:51:00,
2013-09-30 06:56:00,52.1,48.7,29.90,SSE,159,0.0,0.0,88,0.00,,---,0.00,VWS V14.01,2013-09-30 11:56:00,
2013-09-30 07:01:00,52.1,48.7,29.90,SSE,159,0.0,0.0,88,0.00,,---,0.00,VWS V14.01,2013-09-30 12:01:00,
2013-09-30 07:06:00,52.1,48.7,29.90,SSE,159,0.0,0.0,88,0.00,,---,0.00,VWS V14.01,2013-09-30 12:06:00,
2013-09-30 07:11:00,52.1,48.7,29.90,SSE,159,0.0,0.0,88,0.00,,---,0.00,VWS V14.01,2013-09-30 12:11:00,
2013-09-30 07:16:00,52.1,48.7,29.90,SSE,159,0.0,0.0,88,0.00,,---,0.00,VWS V14.01,2013-09-30 12:16:00,
2013-09-30 07:21:00,52.1,48.7,29.90,SSE,159,0.0,0.0,88,0.00,,---,0.00,VWS V14.01,2013-09-30 12:21:00,
2013-09-30 07:26:00,52.1,48.7,29.90,SSE,159,0.0,0.0,88,0.00,,---,0.00,VWS V14.01,2013-09-30 12:26:00,
2013-09-30 07:31:00,52.1,48.7,29.90,SSE,159,0.0,0.0,88,0.00,,---,0.00,VWS V14.01,2013-09-30 12:31:00,
2013-09-30 07:36:00,52.1,48.7,29.90,SSE,159,0.0,0.0,88,0.00,,---,0.00,VWS V14.01,2013-09-30 12:36:00,
2013-09-30 07:41:00,52.1,48.7,29.90,SSE,159,0.0,0.0,88,0.00,,---,0.00,VWS V14.01,2013-09-30 12:41:00,
2013-09-30 07:46:00,52.1,48.7,29.90,SSE,159,0.0,0.0,88,0.00,,---,0.00,VWS V14.01,2013-09-30 12:46:00,
2013-09-30 07:50:00,52.1,48.7,29.90,SSE,159,0.0,0.0,88,0.00,,---,0.00,VWS V14.01,2013-09-30 12:50:00,
2013-09-30 07:55:00,52.1,48.7,29.90,SSE,159,0.0,0.0,88,0.00,,---,0.00,VWS V14.01,2013-09-30 12:55:00,
2013-09-30 08:00:00,55.4,51.0,29.90,South,191,0.0,1.0,85,0.00,,---,0.00,VWS V14.01,2013-09-30 13:00:00,
2013-09-30 08:05:00,56.2,51.1,29.90,SSW,198,0.0,1.0,83,0.00,,---,0.00,VWS V14.01,2013-09-30 13:05:00,
2013-09-30 08:10:00,56.8,51.4,29.90,SSW,193,0.0,3.0,82,0.00,,---,0.00,VWS V14.01,2013-09-30 13:10:00,
2013-09-30 08:15:00,57.3,51.5,29.90,South,183,0.0,0.0,81,0.00,,---,0.00,VWS V14.01,2013-09-30 13:15:00,
2013-09-30 08:20:00,57.6,51.5,29.90,SSE,161,0.0,1.0,80,0.00,,---,0.00,VWS V14.01,2013-09-30 13:20:00,
2013-09-30 08:25:00,58.2,51.7,29.90,SW,222,4.0,6.0,79,0.00,,---,0.00,VWS V14.01,2013-09-30 13:25:00,
2013-09-30 08:30:00,58.6,51.8,29.89,SSW,197,0.0,6.0,78,0.00,,---,0.00,VWS V14.01,2013-09-30 13:30:00,
2013-09-30 08:35:00,58.9,52.1,29.89,South,170,3.0,6.0,78,0.00,,---,0.00,VWS V14.01,2013-09-30 13:35:00,
2013-09-30 08:40:00,59.3,52.1,29.89,SSE,161,0.0,6.0,77,0.00,,---,0.00,VWS V14.01,2013-09-30 13:40:00,
2013-09-30 08:45:00,59.9,52.3,29.89,SSW,206,0.0,6.0,76,0.00,,---,0.00,VWS V14.01,2013-09-30 13:45:00,
2013-09-30 08:50:00,60.4,52.8,29.90,SE,134,0.0,7.0,76,0.00,,---,0.00,VWS V14.01,2013-09-30 13:50:00,
2013-09-30 08:55:00,61.0,52.7,29.90,SE,138,4.0,7.0,74,0.00,,---,0.00,VWS V14.01,2013-09-30 13:55:00,
2013-09-30 09:00:00,61.2,52.5,29.90,SSW,212,0.0,0.0,73,0.00,,---,0.00,VWS V14.01,2013-09-30 14:00:00,
2013-09-30 09:05:00,61.6,52.9,29.89,SW,229,1.0,5.0,73,0.00,,---,0.00,VWS V14.01,2013-09-30 14:05:00,
2013-09-30 09:10:00,61.7,52.6,29.89,SSE,150,3.0,9.0,72,0.00,,---,0.00,VWS V14.01,2013-09-30 14:10:00,
2013-09-30 09:15:00,61.8,52.7,29.89,SSW,194,2.0,9.0,72,0.00,,---,0.00,VWS V14.01,2013-09-30 14:15:00,
2013-09-30 09:20:00,61.8,52.7,29.89,SW,229,0.0,6.0,72,0.00,,---,0.00,VWS V14.01,2013-09-30 14:20:00,
2013-09-30 09:25:00,62.0,53.3,29.89,WSW,245,0.0,6.0,73,0.00,,---,0.00,VWS V14.01,2013-09-30 14:25:00,
2013-09-30 09:30:00,62.1,53.0,29.89,South,186,2.0,6.0,72,0.00,,---,0.00,VWS V14.01,2013-09-30 14:30:00,
2013-09-30 09:35:00,62.3,53.2,29.89,SSW,212,0.0,4.0,72,0.00,,---,0.00,VWS V14.01,2013-09-30 14:35:00,
2013-09-30 09:40:00,62.8,53.7,29.89,SSE,166,2.0,5.0,72,0.00,,---,0.00,VWS V14.01,2013-09-30 14:40:00,
2013-09-30 09:45:00,63.5,53.5,29.89,SSW,205,0.0,5.0,70,0.00,,---,0.00,VWS V14.01,2013-09-30 14:45:00,
2013-09-30 09:50:00,64.1,54.1,29.89,SSW,206,0.0,5.0,70,0.00,,---,0.00,VWS V14.01,2013-09-30 14:50:00,
2013-09-30 09:55:00,64.4,53.6,29.89,SW,216,3.0,8.0,68,0.00,,---,0.00,VWS V14.01,2013-09-30 14:55:00,
2013-09-30 10:00:00,64.8,53.6,29.89,SE,145,1.0,8.0,67,0.00,,---,0.00,VWS V14.01,2013-09-30 15:00:00,
2013-09-30 10:05:00,65.4,53.8,29.89,SW,235,0.0,6.0,66,0.00,,---,0.00,VWS V14.01,2013-09-30 15:05:00,
2013-09-30 10:10:00,65.9,53.8,29.89,SSE,166,0.0,6.0,65,0.00,,---,0.00,VWS V14.01,2013-09-30 15:10:00,
2013-09-30 10:15:00,66.3,53.3,29.89,SW,235,7.0,10.0,63,0.00,,---,0.00,VWS V14.01,2013-09-30 15:15:00,
2013-09-30 10:20:00,66.5,53.5,29.89,WSW,239,5.0,9.0,63,0.00,,---,0.00,VWS V14.01,2013-09-30 15:20:00,
2013-09-30 10:25:00,67.1,53.7,29.89,SW,224,7.0,9.0,62,0.00,,---,0.00,VWS V14.01,2013-09-30 15:25:00,
2013-09-30 10:30:00,67.5,53.6,29.89,SSE,155,4.0,9.0,61,0.00,,---,0.00,VWS V14.01,2013-09-30 15:30:00,
2013-09-30 10:35:00,68.2,53.8,29.89,SSE,148,4.0,5.0,60,0.00,,---,0.00,VWS V14.01,2013-09-30 15:35:00,
2013-09-30 10:40:00,68.7,52.9,29.89,WSW,238,9.0,11.0,57,0.00,,---,0.00,VWS V14.01,2013-09-30 15:40:00,
2013-09-30 10:45:00,69.3,52.5,29.89,WSW,253,6.0,11.0,55,0.00,,---,0.00,VWS V14.01,2013-09-30 15:45:00,
2013-09-30 10:50:00,69.6,52.7,29.89,ESE,103,5.0,8.0,55,0.00,,---,0.00,VWS V14.01,2013-09-30 15:50:00,
2013-09-30 10:55:00,70.1,52.7,29.89,SSE,162,1.0,9.0,54,0.00,,---,0.00,VWS V14.01,2013-09-30 15:55:00,
2013-09-30 11:00:00,70.3,52.4,29.89,SW,216,4.0,10.0,53,0.00,,---,0.00,VWS V14.01,2013-09-30 16:00:00,
2013-09-30 11:05:00,70.6,52.7,29.89,SW,215,6.0,9.0,53,0.00,,---,0.00,VWS V14.01,2013-09-30 16:05:00,
2013-09-30 11:10:00,70.9,52.9,29.89,SSE,160,1.0,10.0,53,0.00,,---,0.00,VWS V14.01,2013-09-30 16:10:00,
2013-09-30 11:15:00,71.4,52.9,29.88,SW,217,2.0,11.0,52,0.00,,---,0.00,VWS V14.01,2013-09-30 16:15:00,
2013-09-30 11:20:00,71.9,53.3,29.88,SW,236,3.0,10.0,52,0.00,,---,0.00,VWS V14.01,2013-09-30 16:20:00,
2013-09-30 11:25:00,72.3,53.2,29.88,SE,128,3.0,12.0,51,0.00,,---,0.00,VWS V14.01,2013-09-30 16:25:00,
2013-09-30 11:30:00,72.9,53.7,29.88,SSE,153,0.0,12.0,51,0.00,,---,0.00,VWS V14.01,2013-09-30 16:30:00,
2013-09-30 11:35:00,73.3,53.6,29.87,SSW,212,0.0,6.0,50,0.00,,---,0.00,VWS V14.01,2013-09-30 16:35:00,
2013-09-30 11:40:00,74.0,54.2,29.87,WSW,240,2.0,8.0,50,0.00,,---,0.00,VWS V14.01,2013-09-30 16:40:00,
2013-09-30 11:45:00,74.5,53.5,29.87,SW,225,5.0,8.0,48,0.00,,---,0.00,VWS V14.01,2013-09-30 16:45:00,
2013-09-30 11:50:00,74.9,53.3,29.87,SSW,210,4.0,6.0,47,0.00,,---,0.00,VWS V14.01,2013-09-30 16:50:00,
2013-09-30 11:55:00,75.4,52.6,29.87,SSE,155,3.0,8.0,45,0.00,,---,0.00,VWS V14.01,2013-09-30 16:55:00,
2013-09-30 12:00:00,75.7,52.3,29.86,WSW,245,3.0,10.0,44,0.00,,---,0.00,VWS V14.01,2013-09-30 17:00:00,
2013-09-30 12:05:00,76.2,52.1,29.86,WSW,252,2.0,7.0,43,0.00,,---,0.00,VWS V14.01,2013-09-30 17:05:00,
2013-09-30 12:10:00,76.8,52.0,29.86,SW,215,8.0,9.0,42,0.00,,---,0.00,VWS V14.01,2013-09-30 17:10:00,
2013-09-30 12:15:00,77.0,52.2,29.86,WSW,248,3.0,9.0,42,0.00,,---,0.00,VWS V14.01,2013-09-30 17:15:00,
2013-09-30 12:20:00,77.4,51.2,29.86,SW,232,5.0,8.0,40,0.00,,---,0.00,VWS V14.01,2013-09-30 17:20:00,
2013-09-30 12:25:00,77.7,50.8,29.86,SE,145,3.0,12.0,39,0.00,,---,0.00,VWS V14.01,2013-09-30 17:25:00,
2013-09-30 12:30:00,77.7,51.5,29.86,SE,143,3.0,12.0,40,0.00,,---,0.00,VWS V14.01,2013-09-30 17:30:00,
2013-09-30 12:35:00,78.2,51.2,29.85,SW,217,3.0,11.0,39,0.00,,---,0.00,VWS V14.01,2013-09-30 17:35:00,
2013-09-30 12:40:00,78.4,50.7,29.85,SW,234,2.0,11.0,38,0.00,,---,0.00,VWS V14.01,2013-09-30 17:40:00,
2013-09-30 12:45:00,78.1,51.2,29.85,SSW,205,0.0,11.0,39,0.00,,---,0.00,VWS V14.01,2013-09-30 17:45:00,
2013-09-30 12:50:00,78.0,51.1,29.85,SSE,152,5.0,10.0,39,0.00,,---,0.00,VWS V14.01,2013-09-30 17:50:00,
2013-09-30 12:55:00,78.4,51.4,29.85,SSE,156,4.0,10.0,39,0.00,,---,0.00,VWS V14.01,2013-09-30 17:55:00,
2013-09-30 13:00:00,78.9,51.2,29.85,WSW,240,3.0,11.0,38,0.00,,---,0.00,VWS V14.01,2013-09-30 18:00:00,
2013-09-30 13:05:00,79.4,50.9,29.84,SSW,212,5.0,12.0,37,0.00,,---,0.00,VWS V14.01,2013-09-30 18:05:00,
2013-09-30 13:10:00,79.8,52.0,29.84,SSW,201,5.0,12.0,38,0.00,,---,0.00,VWS V14.01,2013-09-30 18:10:00,
2013-09-30 13:15:00,80.1,50.8,29.84,SSW,212,4.0,12.0,36,0.00,,---,0.00,VWS V14.01,2013-09-30 18:15:00,
2013-09-30 13:20:00,80.2,50.8,29.84,SE,138,4.0,13.0,36,0.00,,---,0.00,VWS V14.01,2013-09-30 18:20:00,
2013-09-30 13:25:00,80.2,50.8,29.83,SW,235,6.0,13.0,36,0.00,,---,0.00,VWS V14.01,2013-09-30 18:25:00,
2013-09-30 13:30:00,80.4,50.3,29.83,SW,235,7.0,13.0,35,0.00,,---,0.00,VWS V14.01,2013-09-30 18:30:00,
2013-09-30 13:35:00,80.8,51.4,29.83,SE,141,3.0,6.0,36,0.00,,---,0.00,VWS V14.01,2013-09-30 18:35:00,
2013-09-30 13:40:00,81.2,51.0,29.83,SSW,194,0.0,9.0,35,0.00,,---,0.00,VWS V14.01,2013-09-30 18:40:00,
2013-09-30 13:45:00,81.4,50.4,29.83,SSE,166,2.0,10.0,34,0.00,,---,0.00,VWS V14.01,2013-09-30 18:45:00,
2013-09-30 13:50:00,81.9,50.8,29.83,SSE,163,7.0,9.0,34,0.00,,---,0.00,VWS V14.01,2013-09-30 18:50:00,
2013-09-30 13:55:00,81.7,50.6,29.82,WSW,239,5.0,12.0,34,0.00,,---,0.00,VWS V14.01,2013-09-30 18:55:00,
2013-09-30 14:00:00,81.8,50.7,29.82,SSE,167,2.0,12.0,34,0.00,,---,0.00,VWS V14.01,2013-09-30 19:00:00,
2013-09-30 14:05:00,82.4,50.4,29.81,SE,143,3.0,7.0,33,0.00,,---,0.00,VWS V14.01,2013-09-30 19:05:00,
2013-09-30 14:10:00,82.6,51.4,29.82,SSW,194,2.0,7.0,34,0.00,,---,0.00,VWS V14.01,2013-09-30 19:10:00,
2013-09-30 14:15:00,83.0,50.1,29.82,SSW,204,1.0,7.0,32,0.00,,---,0.00,VWS V14.01,2013-09-30 19:15:00,
2013-09-30 14:20:00,83.2,50.3,29.81,SW,235,10.0,10.0,32,0.00,,---,0.00,VWS V14.01,2013-09-30 19:20:00,
2013-09-30 14:25:00,83.2,51.1,29.81,South,169,6.0,10.0,33,0.00,,---,0.00,VWS V14.01,2013-09-30 19:25:00,
2013-09-30 14:30:00,83.5,52.2,29.81,SSW,208,1.0,10.0,34,0.00,,---,0.00,VWS V14.01,2013-09-30 19:30:00,
2013-09-30 14:35:00,84.0,51.0,29.81,SE,131,6.0,8.0,32,0.00,,---,0.00,VWS V14.01,2013-09-30 19:35:00,
2013-09-30 14:40:00,83.5,51.4,29.80,SSE,165,4.0,11.0,33,0.00,,---,0.00,VWS V14.01,2013-09-30 19:40:00,
2013-09-30 14:45:00,83.2,50.3,29.80,SSE,166,5.0,11.0,32,0.00,,---,0.00,VWS V14.01,2013-09-30 19:45:00,
2013-09-30 14:50:00,83.3,50.4,29.80,South,172,5.0,9.0,32,0.00,,---,0.00,VWS V14.01,2013-09-30 19:50:00,
2013-09-30 14:55:00,83.4,50.5,29.80,SW,226,4.0,9.0,32,0.00,,---,0.00,VWS V14.01,2013-09-30 19:55:00,
2013-09-30 15:00:00,83.6,49.8,29.80,ENE,73,4.0,9.0,31,0.00,,---,0.00,VWS V14.01,2013-09-30 20:00:00,
2013-09-30 15:05:00,83.6,50.7,29.80,WSW,243,2.0,9.0,32,0.00,,---,0.00,VWS V14.01,2013-09-30 20:05:00,
2013-09-30 15:10:00,84.1,51.1,29.80,East,98,4.0,9.0,32,0.00,,---,0.00,VWS V14.01,2013-09-30 20:10:00,
2013-09-30 15:15:00,84.1,50.2,29.80,WSW,242,4.0,9.0,31,0.00,,---,0.00,VWS V14.01,2013-09-30 20:15:00,
2013-09-30 15:20:00,84.1,51.1,29.80,SSW,201,3.0,8.0,32,0.00,,---,0.00,VWS V14.01,2013-09-30 20:20:00,
2013-09-30 15:25:00,84.5,50.6,29.79,SSW,203,6.0,8.0,31,0.00,,---,0.00,VWS V14.01,2013-09-30 20:25:00,
2013-09-30 15:30:00,84.3,50.4,29.79,South,177,4.0,8.0,31,0.00,,---,0.00,VWS V14.01,2013-09-30 20:30:00,
2013-09-30 15:35:00,84.2,51.2,29.80,SE,143,5.0,6.0,32,0.00,,---,0.00,VWS V14.01,2013-09-30 20:35:00,
2013-09-30 15:40:00,84.2,50.3,29.79,SSW,208,3.0,9.0,31,0.00,,---,0.00,VWS V14.01,2013-09-30 20:40:00,
2013-09-30 15:45:00,84.3,51.3,29.79,SSW,206,7.0,9.0,32,0.00,,---,0.00,VWS V14.01,2013-09-30 20:45:00,
2013-09-30 15:50:00,84.2,50.3,29.79,SSW,210,3.0,10.0,31,0.00,,---,0.00,VWS V14.01,2013-09-30 20:50:00,
2013-09-30 15:55:00,84.5,50.6,29.79,SE,143,3.0,10.0,31,0.00,,---,0.00,VWS V14.01,2013-09-30 20:55:00,
2013-09-30 16:00:00,84.7,51.6,29.79,SW,222,3.0,10.0,32,0.00,,---,0.00,VWS V14.01,2013-09-30 21:00:00,
2013-09-30 16:05:00,84.7,50.8,29.79,SW,218,8.0,12.0,31,0.00,,---,0.00,VWS V14.01,2013-09-30 21:05:00,
2013-09-30 16:10:00,84.6,50.7,29.79,SW,228,8.0,12.0,31,0.00,,---,0.00,VWS V14.01,2013-09-30 21:10:00,
2013-09-30 16:15:00,84.7,50.8,29.79,SSE,153,1.0,12.0,31,0.00,,---,0.00,VWS V14.01,2013-09-30 21:15:00,
2013-09-30 16:20:00,84.7,50.8,29.78,SSW,203,5.0,10.0,31,0.00,,---,0.00,VWS V14.01,2013-09-30 21:20:00,
2013-09-30 16:25:00,84.8,50.8,29.78,SSE,168,4.0,10.0,31,0.00,,---,0.00,VWS V14.01,2013-09-30 21:25:00,
2013-09-30 16:30:00,84.7,50.8,29.78,South,171,5.0,10.0,31,0.00,,---,0.00,VWS V14.01,2013-09-30 21:30:00,
2013-09-30 16:35:00,84.8,50.8,29.78,SW,233,2.0,10.0,31,0.00,,---,0.00,VWS V14.01,2013-09-30 21:35:00,
2013-09-30 16:40:00,84.6,51.5,29.78,SSW,194,8.0,10.0,32,0.00,,---,0.00,VWS V14.01,2013-09-30 21:40:00,
2013-09-30 16:45:00,84.4,51.3,29.78,SW,215,1.0,10.0,32,0.00,,---,0.00,VWS V14.01,2013-09-30 21:45:00,
2013-09-30 16:50:00,84.6,51.5,29.78,ESE,117,4.0,10.0,32,0.00,,---,0.00,VWS V14.01,2013-09-30 21:50:00,
2013-09-30 16:55:00,84.5,51.4,29.78,SSE,166,3.0,10.0,32,0.00,,---,0.00,VWS V14.01,2013-09-30 21:55:00,
2013-09-30 17:00:00,84.6,51.5,29.78,South,179,4.0,10.0,32,0.00,,---,0.00,VWS V14.01,2013-09-30 22:00:00,
2013-09-30 17:05:00,84.6,51.5,29.78,SW,222,8.0,9.0,32,0.00,,---,0.00,VWS V14.01,2013-09-30 22:05:00,
2013-09-30 17:10:00,84.3,51.3,29.78,SE,127,4.0,9.0,32,0.00,,---,0.00,VWS V14.01,2013-09-30 22:10:00,
2013-09-30 17:15:00,83.9,50.9,29.78,SSW,193,6.0,10.0,32,0.00,,---,0.00,VWS V14.01,2013-09-30 22:15:00,
2013-09-30 17:20:00,83.6,50.7,29.78,SSW,208,4.0,9.0,32,0.00,,---,0.00,VWS V14.01,2013-09-30 22:20:00,
2013-09-30 17:25:00,83.7,51.6,29.78,SW,236,4.0,9.0,33,0.00,,---,0.00,VWS V14.01,2013-09-30 22:25:00,
2013-09-30 17:30:00,83.5,51.4,29.78,SSE,155,3.0,12.0,33,0.00,,---,0.00,VWS V14.01,2013-09-30 22:30:00,
2013-09-30 17:35:00,83.3,52.0,29.78,SE,134,7.0,10.0,34,0.00,,---,0.00,VWS V14.01,2013-09-30 22:35:00,
2013-09-30 17:40:00,83.2,51.9,29.78,SE,135,3.0,10.0,34,0.00,,---,0.00,VWS V14.01,2013-09-30 22:40:00,
2013-09-30 17:45:00,83.1,51.9,29.78,South,186,4.0,10.0,34,0.00,,---,0.00,VWS V14.01,2013-09-30 22:45:00,
2013-09-30 17:50:00,83.0,52.6,29.78,SE,141,3.0,8.0,35,0.00,,---,0.00,VWS V14.01,2013-09-30 22:50:00,
2013-09-30 17:55:00,82.9,52.5,29.78,SSW,198,2.0,8.0,35,0.00,,---,0.00,VWS V14.01,2013-09-30 22:55:00,
2013-09-30 18:00:00,82.9,52.5,29.78,SE,143,7.0,8.0,35,0.00,,---,0.00,VWS V14.01,2013-09-30 23:00:00,
2013-09-30 18:05:00,82.6,52.2,29.78,SSW,211,5.0,8.0,35,0.00,,---,0.00,VWS V14.01,2013-09-30 23:05:00,
2013-09-30 18:10:00,82.5,52.1,29.78,SE,129,4.0,10.0,35,0.00,,---,0.00,VWS V14.01,2013-09-30 23:10:00,
2013-09-30 18:15:00,82.4,52.0,29.78,SSW,193,3.0,10.0,35,0.00,,---,0.00,VWS V14.01,2013-09-30 23:15:00,
2013-09-30 18:20:00,82.1,51.8,29.78,SSE,150,3.0,7.0,35,0.00,,---,0.00,VWS V14.01,2013-09-30 23:20:00,
2013-09-30 18:25:00,81.8,52.3,29.78,SSE,155,2.0,8.0,36,0.00,,---,0.00,VWS V14.01,2013-09-30 23:25:00,
2013-09-30 18:29:00,81.6,52.8,29.78,SSE,165,1.0,8.0,37,0.00,,---,0.00,VWS V14.01,2013-09-30 23:29:00,
2013-09-30 18:34:00,81.5,52.7,29.78,SE,142,2.0,9.0,37,0.00,,---,0.00,VWS V14.01,2013-09-30 23:34:00,
2013-09-30 18:39:00,81.2,53.2,29.78,SSE,162,3.0,9.0,38,0.00,,---,0.00,VWS V14.01,2013-09-30 23:39:00,
2013-09-30 18:44:00,80.7,53.5,29.78,South,179,5.0,9.0,39,0.00,,---,0.00,VWS V14.01,2013-09-30 23:44:00,
2013-09-30 18:49:00,80.4,53.2,29.78,SSE,149,3.0,8.0,39,0.00,,---,0.00,VWS V14.01,2013-09-30 23:49:00,
2013-09-30 18:54:00,80.0,53.5,29.78,SE,143,3.0,8.0,40,0.00,,---,0.00,VWS V14.01,2013-09-30 23:54:00,
2013-09-30 18:59:00,79.6,53.2,29.78,SSE,156,2.0,8.0,40,0.00,,---,0.00,VWS V14.01,2013-09-30 23:59:00,
2013-09-30 19:04:00,79.1,53.4,29.78,South,181,0.0,5.0,41,0.00,,---,0.00,VWS V14.01,2013-10-01 00:04:00,
2013-09-30 19:09:00,78.6,53.6,29.78,SSE,163,3.0,6.0,42,0.00,,---,0.00,VWS V14.01,2013-10-01 00:09:00,
2013-09-30 19:14:00,78.1,53.8,29.78,South,188,4.0,8.0,43,0.00,,---,0.00,VWS V14.01,2013-10-01 00:14:00,
2013-09-30 19:19:00,77.7,53.5,29.78,SSE,149,1.0,7.0,43,0.00,,---,0.00,VWS V14.01,2013-10-01 00:19:00,
2013-09-30 19:24:00,77.4,53.8,29.78,SE,140,2.0,7.0,44,0.00,,---,0.00,VWS V14.01,2013-10-01 00:24:00,
2013-09-30 19:29:00,77.0,54.1,29.78,SE,141,4.0,7.0,45,0.00,,---,0.00,VWS V14.01,2013-10-01 00:29:00,
2013-09-30 19:34:00,76.6,53.7,29.78,SSE,155,2.0,6.0,45,0.00,,---,0.00,VWS V14.01,2013-10-01 00:34:00,
2013-09-30 19:39:00,76.3,54.0,29.78,SW,224,1.0,7.0,46,0.00,,---,0.00,VWS V14.01,2013-10-01 00:39:00,
2013-09-30 19:44:00,75.9,53.7,29.78,SE,142,3.0,7.0,46,0.00,,---,0.00,VWS V14.01,2013-10-01 00:44:00,
2013-09-30 19:49:00,75.5,53.9,29.78,SSE,160,4.0,6.0,47,0.00,,---,0.00,VWS V14.01,2013-10-01 00:49:00,
2013-09-30 19:54:00,75.2,54.2,29.78,SW,236,4.0,7.0,48,0.00,,---,0.00,VWS V14.01,2013-10-01 00:54:00,
2013-09-30 19:59:00,74.9,53.9,29.78,SSW,207,2.0,7.0,48,0.00,,---,0.00,VWS V14.01,2013-10-01 00:59:00,
2013-09-30 20:04:00,74.6,53.6,29.78,SSW,207,6.0,9.0,48,0.00,,---,0.00,VWS V14.01,2013-10-01 01:04:00,
2013-09-30 20:09:00,74.4,53.5,29.78,SSE,166,0.0,9.0,48,0.00,,---,0.00,VWS V14.01,2013-10-01 01:09:00,
2013-09-30 20:14:00,74.2,53.8,29.78,South,186,3.0,9.0,49,0.00,,---,0.00,VWS V14.01,2013-10-01 01:14:00,
2013-09-30 20:19:00,74.0,53.7,29.78,SSE,155,2.0,7.0,49,0.00,,---,0.00,VWS V14.01,2013-10-01 01:19:00,
2013-09-30 20:24:00,73.8,53.5,29.78,SE,143,4.0,7.0,49,0.00,,---,0.00,VWS V14.01,2013-10-01 01:24:00,
2013-09-30 20:29:00,73.6,53.3,29.79,WSW,242,2.0,7.0,49,0.00,,---,0.00,VWS V14.01,2013-10-01 01:29:00,
2013-09-30 20:34:00,73.4,53.7,29.79,SSE,160,0.0,6.0,50,0.00,,---,0.00,VWS V14.01,2013-10-01 01:34:00,
2013-09-30 20:39:00,73.1,53.4,29.79,SE,134,3.0,7.0,50,0.00,,---,0.00,VWS V14.01,2013-10-01 01:39:00,
2013-09-30 20:44:00,72.9,53.2,29.79,SSE,165,0.0,7.0,50,0.00,,---,0.00,VWS V14.01,2013-10-01 01:44:00,
2013-09-30 20:49:00,72.5,53.4,29.79,SSW,197,4.0,6.0,51,0.00,,---,0.00,VWS V14.01,2013-10-01 01:49:00,
2013-09-30 20:54:00,72.2,53.1,29.79,WSW,239,5.0,8.0,51,0.00,,---,0.00,VWS V14.01,2013-10-01 01:54:00,
2013-09-30 20:59:00,72.0,53.4,29.80,South,190,2.0,8.0,52,0.00,,---,0.00,VWS V14.01,2013-10-01 01:59:00,
2013-09-30 21:04:00,71.6,53.6,29.80,SSW,203,2.0,6.0,53,0.00,,---,0.00,VWS V14.01,2013-10-01 02:04:00,
2013-09-30 21:09:00,71.4,53.9,29.80,SE,146,5.0,7.0,54,0.00,,---,0.00,VWS V14.01,2013-10-01 02:09:00,
2013-09-30 21:14:00,71.1,53.6,29.80,SSE,166,1.0,7.0,54,0.00,,---,0.00,VWS V14.01,2013-10-01 02:14:00,
2013-09-30 21:19:00,70.8,53.8,29.80,South,173,1.0,6.0,55,0.00,,---,0.00,VWS V14.01,2013-10-01 02:19:00,
2013-09-30 21:24:00,70.6,53.7,29.80,SSW,208,2.0,7.0,55,0.00,,---,0.00,VWS V14.01,2013-10-01 02:24:00,
2013-09-30 21:29:00,70.3,53.9,29.80,SSW,205,3.0,7.0,56,0.00,,---,0.00,VWS V14.01,2013-10-01 02:29:00,
2013-09-30 21:34:00,70.1,53.7,29.80,South,183,2.0,5.0,56,0.00,,---,0.00,VWS V14.01,2013-10-01 02:34:00,
2013-09-30 21:39:00,69.9,54.0,29.80,SSE,159,2.0,5.0,57,0.00,,---,0.00,VWS V14.01,2013-10-01 02:39:00,
2013-09-30 21:44:00,69.7,53.8,29.80,SSE,158,4.0,6.0,57,0.00,,---,0.00,VWS V14.01,2013-10-01 02:44:00,
2013-09-30 21:49:00,69.6,54.2,29.81,SW,226,0.0,5.0,58,0.00,,---,0.00,VWS V14.01,2013-10-01 02:49:00,
2013-09-30 21:54:00,69.3,53.9,29.81,SSW,193,3.0,6.0,58,0.00,,---,0.00,VWS V14.01,2013-10-01 02:54:00,
2013-09-30 21:59:00,69.2,54.3,29.81,SSW,193,2.0,6.0,59,0.00,,---,0.00,VWS V14.01,2013-10-01 02:59:00,
2013-09-30 22:04:00,69.0,54.1,29.81,South,176,2.0,7.0,59,0.00,,---,0.00,VWS V14.01,2013-10-01 03:04:00,
2013-09-30 22:09:00,68.8,53.9,29.81,SSE,156,0.0,7.0,59,0.00,,---,0.00,VWS V14.01,2013-10-01 03:09:00,
2013-09-30 22:14:00,68.7,54.3,29.81,SSE,153,4.0,7.0,60,0.00,,---,0.00,VWS V14.01,2013-10-01 03:14:00,
2013-09-30 22:19:00,68.6,54.2,29.81,SW,226,2.0,6.0,60,0.00,,---,0.00,VWS V14.01,2013-10-01 03:19:00,
2013-09-30 22:24:00,68.5,54.1,29.80,SSE,150,2.0,7.0,60,0.00,,---,0.00,VWS V14.01,2013-10-01 03:24:00,
2013-09-30 22:29:00,68.5,54.1,29.81,SW,215,0.0,7.0,60,0.00,,---,0.00,VWS V14.01,2013-10-01 03:29:00,
2013-09-30 22:34:00,68.4,54.0,29.81,SE,134,3.0,6.0,60,0.00,,---,0.00,VWS V14.01,2013-10-01 03:34:00,
2013-09-30 22:39:00,68.4,54.0,29.81,WSW,239,2.0,11.0,60,0.00,,---,0.00,VWS V14.01,2013-10-01 03:39:00,
2013-09-30 22:44:00,68.4,54.0,29.81,SSE,152,2.0,11.0,60,0.00,,---,0.00,VWS V14.01,2013-10-01 03:44:00,
2013-09-30 22:49:00,68.3,53.9,29.81,SSW,206,4.0,7.0,60,0.00,,---,0.00,VWS V14.01,2013-10-01 03:49:00,
2013-09-30 22:54:00,68.3,53.9,29.81,SW,224,4.0,7.0,60,0.00,,---,0.00,VWS V14.01,2013-10-01 03:54:00,
2013-09-30 22:59:00,68.1,53.7,29.81,SSW,203,0.0,7.0,60,0.00,,---,0.00,VWS V14.01,2013-10-01 03:59:00,
2013-09-30 23:01:00,68.0,53.6,29.81,SSE,148,3.0,3.0,60,0.00,,---,0.00,VWS V14.01,2013-10-01 04:01:00,
2013-09-30 23:06:00,67.9,53.5,29.81,SSW,203,4.0,4.0,60,0.00,,---,0.00,VWS V14.01,2013-10-01 04:06:00,
2013-09-30 23:11:00,67.8,53.4,29.81,SSE,167,0.0,8.0,60,0.00,,---,0.00,VWS V14.01,2013-10-01 04:11:00,
2013-09-30 23:16:00,67.7,53.3,29.81,South,170,3.0,3.0,60,0.00,,---,0.00,VWS V14.01,2013-10-01 04:16:00,
2013-09-30 23:21:00,67.7,53.3,29.82,SSE,155,1.0,7.0,60,0.00,,---,0.00,VWS V14.01,2013-10-01 04:21:00,
2013-09-30 23:26:00,67.6,53.2,29.82,South,187,0.0,7.0,60,0.00,,---,0.00,VWS V14.01,2013-10-01 04:26:00,
2013-09-30 23:31:00,67.5,53.1,29.81,SE,143,2.0,2.0,60,0.00,,---,0.00,VWS V14.01,2013-10-01 04:31:00,
2013-09-30 23:36:00,67.4,53.0,29.81,SSE,163,2.0,6.0,60,0.00,,---,0.00,VWS V14.01,2013-10-01 04:36:00,
2013-09-30 23:41:00,67.4,53.0,29.81,SSW,198,4.0,6.0,60,0.00,,---,0.00,VWS V14.01,2013-10-01 04:41:00,
2013-09-30 23:46:00,67.3,53.0,29.81,SE,145,2.0,4.0,60,0.00,,---,0.00,VWS V14.01,2013-10-01 04:46:00,
2013-09-30 23:51:00,67.2,52.9,29.81,South,176,2.0,6.0,60,0.00,,---,0.00,VWS V14.01,2013-10-01 04:51:00,
2013-09-30 23:56:00,67.0,53.1,29.81,SE,124,0.0,6.0,61,0.00,,---,0.00,VWS V14.01,2013-10-01 04:56:00,